BEIDOU-3 M19

Last updated on Oct. 24, 2020, 5:55 a.m. UTC

1 44864U 19090A   20297.29422116  .00000034  00000-0  00000-0 0  9999
2 44864  55.1185 131.8563 0013306 261.5964 321.3215  1.86231754  5814
UTC
Height (km)
Latitude
Longitude
Inclination
Orbital Period
UTC large
Height (km)
Speed (km/s)
/
Latitude / Longitude
Inclination (degrees)
Orbital Period (minutes)
Azimuth
Elevation
Range (km)
Doppler Factor
iOS Compass Heading
iOS Angle

Next 30 passes for location: Hong Kong

Rise time Rise Azimuth (degrees) Set time Set Azimuth (degrees) Duration Max altitude (degrees)

No matching passes for this satellites